sat.trackr.live / text

‹ back to catalog

ONEWEB-0452

NORAD 51644 · 2022-012Y

PAYLOAD ACTIVE UNKNOWN

§ Identity

Operator
Country
UK
Launch date
2022-02-10
Launch site
FRGUI
Launch vehicle
Mass (kg)
RCS (m²)

Purposes: comms

External: N2YO · Heavens-Above · Gunter

§ Orbital elements

Epoch: 2026-09-20T04:52:46.305408Z

Period
109.29 min
Inclination
87.9192°
Eccentricity
0.0002279
Mean motion
13.17647933 rev/d
Perigee alt
1,192.0 km
Apogee alt
1,195.4 km
Semi-major
7,571.9 km
B*
-2.1031e-5
RAAN
347.0105°
Arg perigee
103.0478°
Mean anomaly
257.0908°
Rev number
22,618

§ Raw data

ONEWEB-04521 51644U 22012Y   26263.20331372  .00000005  00000+0 -21031-4 0  99932 51644  87.9192 347.0105 0002279 103.0478 257.0908 13.17647933226185

JSON: /api/v1/satellites/51644 · /tle

For live sub-satellite position, see the globe view (requires WebGL).

§ Visibility from observer

Set your observer location to see the next 7 days of passes ≥ 10°. The values pass through the URL so the page stays shareable.

No JS? Fill the form by hand. The geolocation button needs JavaScript.